Regional Weather Roundup
Issued by NWS Sterling, VA

Home | Current Version | Previous Version | Graphics & Text | Print | Product List | Glossary On
Versions: 1 2 3 4 5 6 7 8 9 10 11 12 13 14 15 16 17 18 19 20 21 22 23 24 25 26 27 28 29 30 31 32 33 34 35 36 37 38 39 40 41 42 43 44 45 46 47 48 49 50
000
ASUS41 KLWX 191210
RWRLWX

REGIONAL WEATHER ROUNDUP
NATIONAL WEATHER SERVICE BALTIMORE MD/WASHINGTON DC
800 AM EDT TUE AUG 19 2014

Note: "FAIR" indicates few or no clouds below 12,000 feet
with no significant weather and/or obstructions to visibility.
 TC=TEMPERATURE CELSIUS

 * =Non NWS site. Station does not report precipitation (e.g. rain,
    snow, etc.), thunder, or fog.

DCZ001-MDZ009-015-VAZ040>042-051-053>054-191300-
WASHINGTON METRO
  /KDAA//-FT BELVOIR

CITY           SKY/WX    TMP DP  RH WIND       PRES   REMARKS
WASHINGTON NAT CLOUDY    75  66  73 N7        29.85R
DULLES         PTSUNNY   71  67  87 NE8       29.85R
ANDREWS AFB    PTSUNNY   72  68  88 NE7       29.84R
QUANTICO       PTSUNNY   73  68  84 NE8       29.84R
COLLEGE PARK*  MOSUNNY   72  68  88 CALM      29.84R
LEESBURG*      CLOUDY    70  68  94 NE6       29.87R
MANASSAS*      MOSUNNY   72  70  94 NW3       29.85R
GAITHERSBURG*  CLOUDY    68  64  88 NE3       29.89S

$$

MDZ006>007-011-014-191300-
BALTIMORE METRO

CITY           SKY/WX    TMP DP  RH WIND       PRES   REMARKS
BWI AIRPORT    PTSUNNY   72  66  81 NE10      29.84S
MD SCIENCE CTR   N/A     73  63  70 MISG      29.85R
MARTIN STATE   MOSUNNY   72  68  88 CALM      29.86R
ANNAPOLIS      PTSUNNY   73  67  81 NE8       29.84R
FORT MEADE*    PTSUNNY   70  66  88 E5        29.86R

$$

MDZ012-015-019>023-191300-
MARYLAND EASTERN SHORE

CITY           SKY/WX    TMP DP  RH WIND       PRES   REMARKS
OCEAN CITY     CLOUDY    74  69  85 E12G20    29.83R
SALISBURY      CLOUDY    76  71  85 E9        29.82R
BAY BRIDGE AP*   N/A     72  66  83 E6        29.83S
CAMBRIDGE*     CLOUDY    73  68  83 NE8       29.82R
EASTON*        CLOUDY    73  72  94 E7        29.87R

$$

MDZ017>025-191300-
SOUTHERN MARYLAND

CITY           SKY/WX    TMP DP  RH WIND       PRES   REMARKS
PATUXENT RIVER MOSUNNY   74  71  91 E6        29.82R
ST INIGOES     CLOUDY    74  70  87 E3        29.81R FOG
LEONARDTOWN*   PTSUNNY   72  68  88 CALM      29.83R

$$

MDZ003>005-191300-
NORTH CENTRAL MARYLAND

CITY           SKY/WX    TMP DP  RH WIND       PRES   REMARKS
FREDERICK*     MOSUNNY   68  68 100 CALM      29.89R
HAGERSTOWN APT SUNNY     69  63  81 E8        29.87R
WESTMINSTER*   CLOUDY    68  64  88 CALM      29.87R

$$

MDZ501>502-191300-
WESTERN MARYLAND

CITY           SKY/WX    TMP DP  RH WIND       PRES   REMARKS
OAKLAND*       FOG       63 N/A N/A S3        29.95R VSB<1/4
CUMBERLAND*    CLOUDY    70  68  94 CALM      29.91R

$$

VAZ025>031-191300-
SHENANDOAH VALLEY

CITY           SKY/WX    TMP DP  RH WIND       PRES   REMARKS
WINCHESTER*    CLOUDY    70  64  83 N3        29.87R
STAUNTON*      CLOUDY    67  65  93 CALM      29.90S FOG

$$

WVZ021-048>050-054>055-191300-
EASTERN WEST VIRGINIA PANHANDLE

CITY           SKY/WX    TMP DP  RH WIND       PRES   REMARKS
MARTINSBURG    PTSUNNY   69  62  78 CALM      29.88R
PETERSBURG*    NOT AVBL

$$

VAZ036>039-050-191300-
CENTRAL FOOTHILLS

CITY           SKY/WX    TMP DP  RH WIND       PRES   REMARKS
CHARLOTTESVILL CLOUDY    71  68  90 N5        29.86R FOG
ORANGE*        CLOUDY    70  68  94 CALM      29.87R

$$

VAZ055>057-191300-
NORTH AND CENTRAL PIEDMONT

CITY           SKY/WX    TMP DP  RH WIND       PRES   REMARKS
FREDERICKSBRG* CLOUDY    73  72  97 CALM      29.83R
STAFFORD*      CLOUDY    71  71 100 CALM      29.88R

$$

NCZ024-NYZ072-PAZ021-071-VAZ022-071-191300-
OTHER REGIONAL OBSERVATIONS

CITY           SKY/WX    TMP DP  RH WIND       PRES   REMARKS
NEW YORK CITY  SUNNY     67  54  63 VRB3      29.93S
PHILADELPHIA   MOSUNNY   69  58  67 NE8       29.87F
PITTSBURGH     MOSUNNY   66  62  87 CALM      29.86R
ROANOKE        CLOUDY    71  68  90 SE3       29.90R
RICHMOND       PTSUNNY   73  70  90 CALM      29.82R
RALEIGH        PTSUNNY   72  70  93 CALM      29.84R

$$

ANZ530>537-191300-
MARINE OBSERVATIONS

STATION/POSITION TIME  TEMP    WIND        PRES
                       AIR SEA DIR/SP/G
                 (UTC) (F)     (DEG/KT/KT) (MB)
THOMAS PT LIGHT  1200   73 77   80/ 13/ 15 1010.8R
BALT KEY BRIDGE  1200   72      40/  9/ 12 1010.3R
COVE POINT       1200   73      80/ 12/ 13 1009.6R
LEWISETTA        1200   76 78   60/  7/  9 1009.2R
SOLOMONS ISLAND  1200      79                N/A
PINEY POINT      1200           80/  5/  5   N/A

$$




USA.gov is the U.S. government's official web portal to all federal, state and local government web resources and services.